Location: ????? ??????
(37.8317°N, 23.8750°E)
Time: 13:45:49
(UTC+00:00)

Meteor 2-10 Rocket - Pass Details

Date: 20 January 2021
Orbit: 733 x 885 km, 81.2° (Epoch: 04 March)

Event Time Altitude Azimuth Distance (km) Brightness Sun altitude
Rises 16:46:42 0° 351° (N) 3,390 6.8 -14.2°
Reaches altitude 10° 16:49:10 10° 351° (N) 2,429 6.0 -14.7°
Maximum altitude 16:54:40 89° 82° (E) 803 3.5 -15.7°
Drops below altitude 10° 16:59:53 10° 172° (S) 2,312 6.0 -16.7°
Sets 17:02:11 0° 173° (S) 3,214 6.8 -17.2°
